Location: T�bingen+AIT
(48.5342°N, 9.0700°E)
Time: 20:29:18
(UTC+02:00)

Meteor 1-21 Rocket - Pass Details

Date: 14 September 2017
Orbit: 834 x 907 km, 81.2° (Epoch: 19 September)

Event Time Altitude Azimuth Distance (km) Brightness Sun altitude
Rises 22:44:29 0° 346° (NNW) 3,527 8.3 -28.4°
Reaches altitude 10° 22:46:58 10° 345° (NNW) 2,575 7.4 -28.7°
Maximum altitude 22:52:49 74° 262° (W) 920 4.3 -29.4°
Enters shadow 22:52:52 74° 258° (WSW) 920 4.3 -29.4°
